ORBVIEW 2 (SEASTAR)

Last updated on Mon Sep 21 2026 00:02:08 GMT+0000 (Coordinated Universal Time)

1 24883U 97037A 26263.43678828 .00000146 00000+0 66782-4 0 9999 2 24883 98.8784 73.1553 0001963 178.7355 181.3835 14.35592773536414
UTC large
Height (km)
Speed (km/s)
/
Latitude / Longitude
Inclination (degrees)
Orbital Period (minutes)
Azimuth
Elevation
Range (km)
Doppler Factor

Next 0 passes for location: London (51.5072 / 0.1276)

No passes found over London.
ORBVIEW 2 (SEASTAR)